Preview of NWS' New Version of Forecast
This preview is not operational and should not be used for support decisions.

Terminal Aerodrome Forecast (TAF)

Issued by National Weather Service (NWS)

                            
000
FTUS42 KKEY 131138
TAFEYW
TAF
KEYW 131138Z 1312/1412 VRB03KT P6SM FEW020
     FM131400 03007KT P6SM SCT025=